Flight Track Log - Related Links

Times and Time Zones

All times are in EDT time to prevent confusion due to time zone crossing. See the AWI3875 flight status page for this flight to view local times or setup timezone preferences in your user account.

Time Position Orientation Groundspeed Altitude Reporting Facility
EDT Latitude Longitude Course Direction KTS MPH feet Rate Location/Type
Wed 08:20:24 PM 38.9000 -77.0833 174° South 181 208 2,800  Level Potomac TRACON
Wed 08:21:00 PM 38.6368 -76.8179 138° Southeast  Level FlightAware Approximate
Wed 08:21:24 PM 38.9500 -77.1167 333° Northwest 221 254 5,200  Level Potomac TRACON
Wed 08:22:00 PM 38.5692 -76.7390 138° Southeast  Level FlightAware Approximate
Wed 08:22:25 PM 39.0167 -77.1167 360° North 272 313 7,000  Level Potomac TRACON
Wed 08:23:00 PM 38.4846 -76.7121 174° South  Level FlightAware Approximate
Wed 08:23:25 PM 39.0333 -77.0333 76° East 309 356 9,400  Level Potomac TRACON
Wed 08:24:00 PM 38.3940 -76.6970 159° South  Level FlightAware Approximate
Wed 08:24:25 PM 38.9667 -76.9667 142° Southeast 304 350 11,600  Level Potomac TRACON
Wed 08:25:00 PM 38.3047 -76.6769 174° South  Level FlightAware Approximate
Wed 08:26:37 PM 38.7919 -76.8622 155° Southeast 327 376 14,000  Level Washington Center
Wed 08:27:38 PM 38.7008 -76.8100 156° South 342 394 14,000  Level Washington Center
Wed 08:28:38 PM 38.6075 -76.7553 155° Southeast 362 417 14,000  Level Washington Center
Wed 08:29:38 PM 38.5139 -76.7219 164° South 362 417 14,000  Level Washington Center
Wed 08:30:39 PM 38.4142 -76.7100 175° South 357 411 14,000  Level Washington Center
Wed 08:31:37 PM 38.3078 -76.6925 173° South 352 405 14,000  Level Washington Center
Wed 08:32:38 PM 38.2100 -76.6806 175° South 352 405 14,000  Level Washington Center
Wed 08:33:38 PM 38.1119 -76.6686 175° South 352 405 14,000  Level Washington Center
Wed 08:34:38 PM 38.0100 -76.6697 180° South 357 411 14,000  Level Washington Center
Wed 08:35:39 PM 37.9075 -76.6761 183° South 365 420 14,000 -375 Level Washington Center
Wed 08:36:46 PM 37.8100 -76.6275 158° South 375 432 13,200 -857 Descending Washington Center
Wed 08:37:38 PM 37.7481 -76.5425 133° Southeast 341 392 12,300 -1,071 Descending Washington Center
Wed 08:38:38 PM 37.6800 -76.4497 133° Southeast 346 398 11,200 -1,091 Descending Washington Center
Wed 08:39:39 PM 37.6075 -76.3783 142° Southeast 346 398 10,100 -1,109 Descending Washington Center
Wed 08:40:37 PM 37.5283 -76.3564 168° South 305 351 9,000 -1,091 Descending Washington Center
Wed 08:41:40 PM 37.4492 -76.3347 168° South 293 337 7,900 -1,100 Descending Washington Center
Wed 08:42:37 PM 37.3742 -76.3183 170° South 286 329 6,800 -1,119 Descending Washington Center
Wed 08:43:38 PM 37.2972 -76.2994 169° South 281 323 5,700 -893 Descending Washington Center
Wed 08:44:38 PM 37.2242 -76.2831 170° South 276 318 5,000 -347 Descending Washington Center
Wed 08:45:39 PM 37.1492 -76.2642 169° South 276 318 5,000  Level Washington Center
Wed 08:46:51 PM 37.0617 -76.2453 170° South 276 318 5,000  Level Washington Center
Wed 08:47:52 PM 36.9867 -76.2264 169° South 267 307 5,000 -393 Level Washington Center
Wed 08:48:53 PM 36.9281 -76.2753 214° Southwest 233 268 4,200 -787 Descending Washington Center

Login

Don't have an account? Register now (free) for customized features, flight alerts, and more!